GW5578 Weather Reports


time (UTC)temp
F
wind
direction
speed
knots
gust
knots
rain 1hr
in
rain 24hr
in
rain mn
in
humidity
%
barometer
mb
20260506134548 53 39 1.7 7.8 0.03 0.06 0.03 65 1011.9
20260506133049 55 228 3.5 9.6 0.01 0.03 0.01 57 1011.6
20260506131551 55 231 0.9 3.5 0.01 0.03 0.01 66 1011.5
20260506130052 56 280 3.5 12.2 0.00 0.02 0.00 56 1011.7
20260506124546 59 234 4.3 10.4 0.00 0.02 0.00 48 1011.5
20260506123051 57 215 3.5 7.8 0.00 0.02 0.00 49 1011.3
20260506121549 57 204 4.3 9.6 0.00 0.02 0.00 49 1011.5
20260506120109 57 216 4.3 10.4 0.00 0.02 0.00 49 1011.4
20260506114553 57 265 3.5 7.8 0.00 0.02 0.00 47 1011.5
20260506113053 58 338 3.5 12.2 0.00 0.02 0.00 47 1011.6
20260506111551 57 228 3.5 10.4 0.00 0.02 0.00 49 1011.7
20260506110100 56 306 4.3 8.7 0.00 0.02 0.00 50 1011.9
20260506104550 57 283 4.3 8.7 0.00 0.02 0.00 49 1011.8
20260506103044 57 252 2.6 7.8 0.00 0.02 0.00 50 1012.0
20260506101556 56 304 1.7 7.8 0.00 0.02 0.00 50 1011.9
20260506100051 55 252 2.6 6.1 0.00 0.02 0.00 50 1012.2
20260506094606 54 226 2.6 7.0 0.00 0.02 0.00 57 1012.3
20260506093055 53 315 2.6 7.0 0.00 0.02 0.00 59 1012.3
20260506091552 52 240 1.7 6.1 0.00 0.02 0.00 62 1012.3
20260506090046 50 244 1.7 4.3 0.00 0.02 0.00 62 1012.4
20260506084550 49 298 1.7 5.2 0.00 0.02 0.00 66 1012.5
20260506083057 46 190 0.0 3.5 0.00 0.02 0.00 77 1012.4
20260506081551 45 0 0.0 1.7 0.00 0.02 0.00 77 1012.5
20260506073048 43 0 0.0 1.7 0.00 0.02 0.00 85 1012.7
20260506071550 42 0 0.0 0.0 0.00 0.02 0.00 85 1012.8
20260506061544 42 98 0.0 2.6 0.00 0.02 0.00 85 1012.8
20260506044552 42 0 0.0 1.7 0.00 0.02 0.00 86 1012.1
20260506043053 42 120 0.0 0.9 0.00 0.02 0.00 86 1012.1
20260506041551 42 0 0.0 0.9 0.00 0.02 0.00 86 1012.0
20260506040059 42 0 0.0 0.9 0.00 0.02 0.00 87 1011.8
20260506034606 43 0 0.0 0.0 0.00 0.02 0.00 87 1011.8
20260506033043 43 0 0.0 1.7 0.00 0.02 0.00 87 1011.8
20260506031558 43 0 0.0 2.6 0.00 0.02 0.00 87 1011.9
20260506030052 42 302 0.0 1.7 0.00 0.02 0.00 88 1012.0
20260506024546 42 0 0.0 1.7 0.00 0.02 0.00 88 1012.0
20260506023048 42 0 0.0 0.0 0.00 0.02 0.00 88 1012.0
20260506021556 42 0 0.0 0.0 0.00 0.02 0.00 88 1012.0
20260506020047 43 0 0.0 0.0 0.00 0.02 0.00 88 1012.0
20260506014548 42 0 0.0 1.7 0.00 0.02 0.00 88 1012.1
20260506013049 43 0 0.0 0.9 0.00 0.02 0.00 88 1012.2
20260506011553 43 0 0.0 0.0 0.00 0.02 0.00 88 1012.0
20260506010048 43 0 0.0 1.7 0.00 0.02 0.00 88 1012.1
20260506004551 43 0 0.0 0.9 0.00 0.02 0.00 88 1012.2
20260506003052 43 0 0.0 0.0 0.00 0.02 0.00 88 1012.4
20260506001550 44 0 0.0 0.9 0.00 0.02 0.00 88 1012.5
20260506000055 44 0 0.0 0.9 0.00 0.02 0.00 88 1012.6
20260505234600 44 0 0.0 0.9 0.00 0.02 0.00 88 1012.6
20260505233105 44 0 0.0 0.9 0.00 0.02 0.00 87 1012.4
20260505231554 44 0 0.0 0.0 0.00 0.02 0.00 87 1012.5
20260505230051 44 0 0.0 1.7 0.00 0.02 0.00 87 1012.5
20260505224551 44 0 0.0 0.0 0.00 0.02 0.00 87 1012.6
20260505223052 44 0 0.0 0.9 0.00 0.02 0.00 87 1012.8
20260505221551 45 0 0.0 1.7 0.00 0.02 0.00 86 1012.8
20260505220052 45 0 0.0 1.7 0.00 0.02 0.00 86 1013.1
20260505214554 45 0 0.0 0.0 0.00 0.02 0.02 85 1013.1
20260505213053 46 0 1.7 2.6 0.00 0.02 0.02 85 1013.2
20260505211606 46 0 0.0 0.9 0.00 0.02 0.02 85 1013.2
20260505210052 46 0 0.0 0.9 0.00 0.02 0.02 84 1013.2
20260505204552 46 0 0.0 1.7 0.00 0.13 0.02 84 1013.0
20260505203050 46 0 0.0 0.9 0.00 0.13 0.02 83 1012.8
20260505201557 47 247 0.0 0.9 0.00 0.13 0.02 83 1012.5
20260505200051 47 0 0.0 1.7 0.00 0.13 0.02 82 1012.2
20260505194608 47 244 0.9 3.5 0.00 0.40 0.02 81 1012.3
20260505193054 47 0 0.0 0.0 0.00 0.40 0.02 82 1012.3
20260505191554 47 253 0.0 3.5 0.00 0.40 0.02 81 1012.2
20260505190050 48 281 1.7 4.3 0.00 0.40 0.02 80 1012.1
20260505184553 48 219 1.7 5.2 0.00 0.49 0.02 80 1011.8
20260505183051 49 224 1.7 5.2 0.00 0.49 0.02 78 1011.7
20260505181558 49 0 0.0 3.5 0.00 0.49 0.02 77 1011.7
20260505180051 49 248 0.0 5.2 0.00 0.49 0.02 76 1011.7
20260505174555 50 238 0.0 3.5 0.00 0.51 0.02 74 1011.7
20260505173049 50 223 0.9 2.6 0.00 0.51 0.02 73 1011.9
20260505171553 51 284 0.9 4.3 0.00 0.51 0.02 72 1012.0
20260505170054 52 263 0.9 4.3 0.00 0.51 0.02 70 1012.1
20260505164616 52 286 0.9 4.3 0.00 0.51 0.02 70 1012.5
20260505163101 51 0 1.7 7.0 0.02 0.51 0.02 74 1012.4
20260505161550 49 317 0.0 7.0 0.02 0.51 0.02 79 1012.7
20260505153054 52 265 3.5 10.4 0.00 0.53 0.00 65 1012.5
20260505151554 54 214 3.5 7.8 0.00 0.53 0.00 59 1011.8